[[{"header":{"parameterUnit":"m.s-1","parameterCategory":1,"la1":30.2991,"la2":30.254,"lo1":-89.0895,"lo2":-89.0444,"dy":0.0017,"dx":0.0017,"nx":28,"ny":28,"refTime":"2024-08-06T09:00:00:Z","depth":0,"parameterNumber":2,"parameterNumberName":"U-component_of_WINDS"},"data":[0,0,0,0,0,0,0,0,0,0,0,0,0,0,0,0,0,0,0,0,0,0,0,0,0,0,0,0,0,0,0,0,0,0,0,0,0,0,0,0,0,0,0,0,0,0,0,0,0,0,0,0,0,0,0,0,0,0,2.2941,2.2942,0,2.2974,2.2975,2.2975,2.2907,2.2904,2.2902,2.29,2.2935,2.2938,2.2941,0,0,0,0,0,0,0,0,0,0,0,0,0,2.2822,2.2824,2.2941,2.2942,2.2942,2.2974,2.2975,2.2975,2.2907,2.2904,2.2902,2.2899,2.2934,2.2937,2.2941,0,0,0,0,0,0,0,0,0,0,0,0,0,2.2866,2.2825,2.2941,2.2912,2.291,2.2974,2.2975,2.2975,2.2908,2.2904,2.2901,2.2898,2.2933,2.2937,2.2942,2.3036,0,0,2.2955,2.2957,0,0,0,0,0,0,0,0,2.2864,2.2871,2.2916,2.2914,2.2912,2.2933,2.2945,2.2996,2.2908,2.2908,2.29,2.2896,2.2937,2.2941,2.2954,2.3038,2.3039,2.2956,2.2958,2.296,2.2962,0,0,0,0,0,0,0,2.2861,2.2869,2.2954,2.2917,2.2914,2.2898,2.2901,2.2954,2.2941,2.2908,2.2903,2.2908,2.2935,2.295,2.2955,2.304,2.2956,2.296,2.2962,2.2964,2.3206,2.321,0,0,0,0,0,0,2.2861,2.2867,2.2953,2.2955,2.2879,2.2903,2.2906,2.2929,2.294,2.2939,2.2911,2.2905,2.2944,2.295,2.2956,2.307,2.296,2.2965,2.2967,2.3203,2.3207,2.3211,0,0,0,0,0,0,2.2859,2.2869,2.2952,2.291,2.2919,2.2908,2.2936,2.2932,2.2947,2.2942,2.294,2.2929,2.2942,2.2949,2.3018,2.307,2.2967,2.2971,2.3198,2.3204,2.3209,2.3298,0,0,0,0,0,0,2.2856,2.2869,2.2904,2.2911,2.2922,2.3013,2.2939,2.2935,2.2955,2.2947,2.2958,2.2957,2.294,2.3011,2.3022,2.3075,2.2974,2.3193,2.3201,2.3207,2.3291,2.3306,2.332,0,0,0,0,0,2.2852,2.2928,2.2906,2.2917,2.2965,2.3016,2.3022,2.3,2.2959,2.2995,2.2993,2.2957,2.3062,2.3019,2.303,2.3085,2.319,2.3199,2.3207,2.3284,2.3303,2.3319,0,0,0,0,0,0,2.2927,2.2928,2.2904,2.2985,2.3001,2.3004,2.3049,2.3021,2.3049,2.3041,2.3012,2.3016,2.309,2.3094,2.3045,2.3179,2.3119,2.3131,2.3174,2.3192,2.3206,2.3205,2.2978,0,0,0,0,0,2.2954,2.2994,2.2992,2.3063,2.3073,2.306,2.3081,2.3063,2.3078,2.3085,2.3087,2.3104,2.3141,2.3166,2.32,2.329,2.3293,2.3334,2.3348,2.336,2.3371,2.3422,2.3441,2.3239,2.3238,2.3238,0,0,2.3008,2.3013,2.304,2.3079,2.3089,2.3133,2.3066,2.3114,2.3147,2.3092,2.3158,2.316,2.3177,2.3258,2.3293,2.3263,2.3427,2.3371,2.338,2.3385,2.3432,2.3452,2.3469,2.3244,2.3243,2.3242,0,0,2.313,2.3137,2.3199,2.3211,2.3227,2.3218,2.3233,2.3241,2.3241,2.3305,2.3266,2.3305,2.3368,2.3384,2.3399,2.3529,2.3498,2.3541,2.3617,2.3667,2.3683,2.3697,2.3747,2.3765,2.3551,2.3551,2.3551,0,2.3196,2.326,2.3234,2.3286,2.3305,2.3257,2.3321,2.3333,2.3361,2.3376,2.3341,2.3422,2.343,2.3515,2.3547,2.356,2.3578,2.354,2.3683,2.3697,2.371,2.3757,2.3775,2.3556,2.3556,2.3555,2.3555,0,2.3342,2.3387,2.3434,2.3463,2.3487,2.3544,2.3528,2.3556,2.3536,2.3531,2.3599,2.3607,2.3643,2.3661,2.3641,2.3744,2.3725,2.3687,2.3627,2.3735,2.3779,2.3796,2.3564,2.3562,2.356,2.3559,0,0,2.3514,2.3527,2.3545,2.3559,2.3574,2.3609,2.3665,2.37,2.3726,2.3746,2.3794,2.385,2.3815,2.3834,2.3815,2.3859,2.3965,2.3816,2.3816,2.3846,2.4082,2.4113,2.4134,2.3944,2.3947,2.395,2.4082,0,2.3637,2.3734,2.3712,2.3808,2.3851,2.3806,2.3855,2.3871,2.3868,2.3905,2.3901,2.3943,2.3893,2.3904,2.3945,2.3944,2.4013,2.3933,2.3991,2.3993,2.3991,2.4156,2.4188,2.4313,2.4099,2.4101,2.4103,0,2.3795,2.3822,2.3922,2.3932,2.395,2.3994,2.4026,2.4061,2.4078,2.4073,2.4094,2.4068,2.4125,2.4063,2.4143,2.4089,2.4111,2.4115,2.4119,2.4126,2.4057,2.4171,2.4352,2.4372,2.4129,2.4127,2.4126,0,2.3914,2.3975,2.4044,2.4056,2.4069,2.4102,2.4109,2.4123,2.4146,2.4174,2.419,2.4223,2.4243,2.427,2.4255,2.421,2.4339,2.4274,2.4339,2.434,2.437,2.4369,2.4561,2.4379,2.4379,2.4378,2.4378,0,2.4057,2.412,2.4098,2.4141,2.4212,2.4187,2.4258,2.4259,2.4273,2.4316,2.4278,2.432,2.4295,2.4336,2.4323,2.4394,2.4402,2.4401,2.4398,2.4406,2.4407,2.4422,2.4415,2.4383,2.4382,2.4381,2.438,0,2.4203,2.4191,2.4263,2.427,2.4273,2.4325,2.4332,2.4372,2.4366,2.4422,2.4433,2.4425,2.447,2.4457,2.4505,2.4498,2.4587,2.4571,2.4582,2.4579,2.4646,2.4641,2.4857,2.4885,2.4682,2.4684,2.4686,0,2.4297,2.4345,2.4357,2.4383,2.4393,2.4436,2.446,2.4437,2.4464,2.4488,2.4526,2.4568,2.4601,2.4676,2.4675,2.4713,2.47,2.4773,2.4705,2.4713,2.4705,2.4704,2.471,2.4787,2.4789,2.4791,2.4793,0,2.4465,2.4456,2.4492,2.4527,2.4556,2.4582,2.4604,2.4628,2.4607,2.464,2.4686,2.4711,2.4762,2.4805,2.484,2.4848,2.4819,2.4814,2.4831,2.4842,2.4848,2.485,2.4622,2.481,2.4808,2.4807,2.4806,2.4805,2.459,2.4632,2.4648,2.4689,2.4704,2.4726,2.4766,2.4765,2.4803,2.4843,2.4826,2.4881,2.4898,2.4942,2.4955,2.4998,2.497,2.4995,2.5002,2.5009,2.5019,2.4839,2.5004,2.5003,2.5003,2.5002,2.5002,0,2.4759,2.4767,2.4805,2.4839,2.4872,2.484,2.4863,2.4894,2.4942,2.4961,2.4994,2.5049,2.5091,2.5093,2.5133,2.5168,2.5155,2.5179,2.5178,2.5181,2.504,2.5022,2.5189,2.5189,2.5189,2.5189,2.5189,2.5189,2.4851,2.4922,2.4915,2.4993,2.5001,2.5054,2.507,2.5092,2.5107,2.517,2.5204,2.5205,2.5219,2.526,2.5298,2.5297,2.5316,2.5346,2.5341,2.5209,2.5191,2.5173,2.5157,2.5349,2.5349,2.5479,2.548,2.5481]},{"header":{"parameterUnit":"m.s-1","parameterCategory":1,"la1":30.2991,"la2":30.254,"lo1":-89.0895,"lo2":-89.0444,"dy":0.0017,"dx":0.0017,"nx":28,"ny":28,"refTime":"2024-08-06T09:00:00:Z","depth":0,"parameterNumber":3,"parameterNumberName":"V-component_of_WINDS"},"data":[0,0,0,0,0,0,0,0,0,0,0,0,0,0,0,0,0,0,0,0,0,0,0,0,0,0,0,0,0,0,0,0,0,0,0,0,0,0,0,0,0,0,0,0,0,0,0,0,0,0,0,0,0,0,0,0,0,0,-2.4912,-2.4913,0,-2.4982,-2.4983,-2.4984,-2.4966,-2.4965,-2.4964,-2.4962,-2.5032,-2.5036,-2.5039,0,0,0,0,0,0,0,0,0,0,0,0,0,-2.4763,-2.4766,-2.4912,-2.4913,-2.4914,-2.4982,-2.4983,-2.4984,-2.4966,-2.4965,-2.4963,-2.4962,-2.5031,-2.5035,-2.5039,0,0,0,0,0,0,0,0,0,0,0,0,0,-2.483,-2.4767,-2.4912,-2.4913,-2.4914,-2.4982,-2.4983,-2.4984,-2.4967,-2.4965,-2.4963,-2.4961,-2.503,-2.5035,-2.5039,-2.5109,0,0,-2.5054,-2.5056,0,0,0,0,0,0,0,0,-2.4826,-2.4835,-2.4912,-2.4913,-2.4915,-2.4963,-2.4956,-2.5026,-2.4967,-2.4947,-2.4962,-2.496,-2.5011,-2.5017,-2.5035,-2.5113,-2.5116,-2.5054,-2.5057,-2.5059,-2.506,0,0,0,0,0,0,0,-2.4821,-2.4832,-2.494,-2.4913,-2.4915,-2.491,-2.4918,-2.4969,-2.4989,-2.4948,-2.4947,-2.4956,-2.5011,-2.503,-2.5036,-2.5117,-2.5054,-2.5058,-2.5061,-2.5063,-2.5255,-2.5258,0,0,0,0,0,0,-2.4816,-2.4828,-2.4937,-2.4942,-2.4864,-2.4915,-2.4923,-2.495,-2.4989,-2.4993,-2.4958,-2.4955,-2.5023,-2.5031,-2.5039,-2.5123,-2.5059,-2.5063,-2.5066,-2.5253,-2.5256,-2.5258,0,0,0,0,0,0,-2.4813,-2.4826,-2.4935,-2.4885,-2.4898,-2.4919,-2.495,-2.4952,-2.4971,-2.4996,-2.4999,-2.4973,-2.5022,-2.5032,-2.5092,-2.5125,-2.5066,-2.507,-2.5251,-2.5254,-2.5257,-2.5292,0,0,0,0,0,0,-2.4809,-2.4825,-2.4852,-2.4886,-2.4901,-2.4987,-2.4952,-2.4955,-2.4979,-2.4977,-2.5012,-2.5015,-2.5021,-2.5085,-2.5097,-2.5131,-2.5074,-2.5248,-2.5252,-2.5256,-2.5288,-2.5296,-2.5303,0,0,0,0,0,-2.4803,-2.4858,-2.4853,-2.4866,-2.4935,-2.4989,-2.4998,-2.5004,-2.4982,-2.5009,-2.5025,-2.5014,-2.512,-2.5091,-2.5104,-2.514,-2.5246,-2.5251,-2.5256,-2.5285,-2.5295,-2.5303,0,0,0,0,0,0,-2.4827,-2.4863,-2.4857,-2.4925,-2.4954,-2.4986,-2.502,-2.5014,-2.505,-2.5045,-2.5051,-2.5059,-2.512,-2.5136,-2.5104,-2.521,-2.518,-2.5188,-2.5197,-2.5207,-2.5214,-2.5209,-2.5077,0,0,0,0,0,-2.4841,-2.4882,-2.491,-2.4967,-2.4982,-2.4999,-2.5023,-2.5025,-2.5055,-2.5067,-2.5087,-2.5117,-2.5157,-2.5183,-2.5221,-2.5291,-2.5298,-2.5322,-2.5329,-2.5336,-2.5342,-2.538,-2.5391,-2.5275,-2.5275,-2.5275,0,0,-2.4868,-2.4893,-2.4918,-2.4973,-2.4996,-2.5038,-2.5009,-2.5055,-2.5086,-2.5074,-2.5132,-2.5148,-2.5181,-2.5246,-2.5276,-2.5262,-2.5376,-2.5342,-2.5347,-2.535,-2.5387,-2.5398,-2.5407,-2.5279,-2.5278,-2.5278,0,0,-2.494,-2.4963,-2.5013,-2.5037,-2.5072,-2.5083,-2.5095,-2.5128,-2.5138,-2.5196,-2.5188,-2.5225,-2.5294,-2.5318,-2.5339,-2.5421,-2.5412,-2.5433,-2.5473,-2.551,-2.5519,-2.5527,-2.5556,-2.5567,-2.544,-2.544,-2.544,0,-2.4969,-2.5033,-2.5039,-2.5086,-2.511,-2.5102,-2.5152,-2.5175,-2.5221,-2.5237,-2.5221,-2.5307,-2.5329,-2.5399,-2.542,-2.5437,-2.5451,-2.5429,-2.5517,-2.5526,-2.5533,-2.5561,-2.5572,-2.5442,-2.5442,-2.5442,-2.5442,0,-2.5068,-2.5112,-2.5148,-2.5193,-2.5221,-2.527,-2.5283,-2.5311,-2.5311,-2.5324,-2.5384,-2.541,-2.5453,-2.547,-2.547,-2.5541,-2.5531,-2.5516,-2.5485,-2.5546,-2.5573,-2.5583,-2.5446,-2.5445,-2.5444,-2.5443,0,0,-2.5155,-2.5204,-2.5217,-2.5237,-2.5276,-2.531,-2.5358,-2.5401,-2.5425,-2.5457,-2.5497,-2.5556,-2.5543,-2.5567,-2.557,-2.5603,-2.5666,-2.5584,-2.5584,-2.5598,-2.5745,-2.5756,-2.5768,-2.566,-2.5662,-2.5664,-2.5742,0,-2.523,-2.5315,-2.5323,-2.5399,-2.544,-2.5433,-2.5475,-2.5503,-2.5516,-2.5553,-2.5567,-2.5609,-2.5588,-2.5603,-2.5635,-2.5651,-2.5695,-2.5646,-2.5697,-2.5699,-2.5689,-2.5782,-2.5793,-2.5866,-2.5753,-2.5754,-2.5756,0,-2.5328,-2.5364,-2.5445,-2.5478,-2.5496,-2.5533,-2.5573,-2.5609,-2.564,-2.5648,-2.5675,-2.5674,-2.5723,-2.5692,-2.576,-2.5726,-2.5748,-2.5759,-2.5762,-2.5767,-2.5731,-2.5788,-2.5889,-2.59,-2.5772,-2.5771,-2.5769,0,-2.5384,-2.5452,-2.5509,-2.5527,-2.5567,-2.5594,-2.5612,-2.5642,-2.5667,-2.5703,-2.5719,-2.5759,-2.5781,-2.5812,-2.5822,-2.5798,-2.589,-2.5859,-2.5897,-2.5897,-2.5916,-2.5914,-2.6021,-2.5931,-2.5931,-2.593,-2.593,0,-2.5466,-2.5516,-2.5535,-2.557,-2.5625,-2.5633,-2.5688,-2.5704,-2.5731,-2.5769,-2.5766,-2.5801,-2.5812,-2.585,-2.5858,-2.5913,-2.5923,-2.593,-2.5931,-2.593,-2.5929,-2.5944,-2.5939,-2.5933,-2.5933,-2.5932,-2.5932,0,-2.5537,-2.5552,-2.5614,-2.5647,-2.5657,-2.5696,-2.5725,-2.5758,-2.5772,-2.582,-2.5832,-2.5852,-2.5896,-2.5909,-2.5962,-2.5967,-2.6032,-2.6029,-2.6021,-2.6021,-2.6058,-2.6054,-2.6178,-2.6194,-2.6094,-2.6095,-2.6095,0,-2.5588,-2.5626,-2.5664,-2.569,-2.5709,-2.575,-2.5776,-2.5786,-2.5813,-2.5853,-2.5882,-2.5926,-2.5961,-2.6032,-2.6052,-2.6092,-2.609,-2.613,-2.6096,-2.6093,-2.609,-2.6087,-2.6091,-2.6136,-2.6137,-2.6138,-2.6139,0,-2.5678,-2.5683,-2.5721,-2.5762,-2.5794,-2.5826,-2.5858,-2.5879,-2.5893,-2.5924,-2.5969,-2.5997,-2.6051,-2.6095,-2.6136,-2.6154,-2.6149,-2.615,-2.6161,-2.6159,-2.6153,-2.6157,-2.6038,-2.6147,-2.6146,-2.6145,-2.6145,-2.6145,-2.574,-2.5774,-2.5806,-2.5848,-2.5873,-2.5903,-2.5936,-2.5954,-2.5992,-2.6037,-2.6041,-2.609,-2.6121,-2.6176,-2.6197,-2.6236,-2.6224,-2.6239,-2.6243,-2.6247,-2.625,-2.6148,-2.6243,-2.6243,-2.6243,-2.6243,-2.6242,0,-2.5829,-2.5849,-2.5888,-2.5933,-2.5966,-2.5959,-2.5994,-2.6022,-2.6066,-2.6096,-2.6131,-2.6183,-2.6226,-2.6249,-2.6291,-2.6318,-2.6316,-2.6328,-2.6326,-2.633,-2.6258,-2.6244,-2.6329,-2.6329,-2.6329,-2.6329,-2.6329,-2.6329,-2.5879,-2.5935,-2.5945,-2.6014,-2.6034,-2.6082,-2.6103,-2.613,-2.6154,-2.6213,-2.6248,-2.6263,-2.6291,-2.6335,-2.6373,-2.6379,-2.6395,-2.6408,-2.6412,-2.6344,-2.6335,-2.6327,-2.6314,-2.6411,-2.6412,-2.6481,-2.6482,-2.6482]}]]